Zurück zum Katalog

STARLINK-36116

AktivKommunikationVLEO
NORAD 66948·PAYLOAD·🇺🇸 United States

Gestartet Dec 7, 2025 von Vandenberg Space Force Base

Loading…

Nächste Überflüge (nächste 24 Stunden)

TLE

AktuellSource: CelesTrak SupGP

Epoche: Sep 14, 2026, 15:44 UTC

1 66948C 25286Z   26257.65604167  .00051899  00000+0  15339-2 0  2574
2 66948  53.1586 197.3379 0001191  87.9385 358.3778 15.34353217    10

Verfolge STARLINK-36116 in Echtzeit mit AllMySat

Download on the App Store